Date String (YYYY-MM-DD hh:mm:ss) UTC,Instrument flags,Ambient pressure (hPa),Sample flow (lpm),Bypass flow (lpm),Sample temperature (°C),Ambient temperature (°C),ASC tube jacket temperature (°C),LED temperature (°C),Box temperature (°C),Sample RH (%),Span deviation,Mass concentration (μg/m³),Mass concentration (μg/m³),Mass concentration (μg/m³)
DateTimeUTC,F1_M11,P_M11,Q1_M11,Q2_M11,T1_M11,T2_M11,T3_M11,T4_M11,T5_M11,U1_M11,ZSPAN_M11,X0_M11,X2_M11,X1_M11
2022-10-18 05:00:00,,0832.3,5.00,0.00,28.7,27.0,00.0,37.7,30.4,12.6,0001.4,0015.69,0007.57,0006.61
2022-10-18 05:01:00,,0832.3,5.00,0.00,28.8,27.0,00.0,37.7,30.5,12.6,0000.0,0015.37,0007.57,0006.60
2022-10-18 05:02:00,,0832.3,5.00,0.00,28.8,27.0,00.0,37.7,30.4,12.6,0000.0,0015.21,0007.53,0006.61
2022-10-18 05:03:00,,0832.3,5.00,0.00,28.7,27.0,00.0,37.7,30.4,12.6,0000.8,0013.84,0007.56,0006.62
2022-10-18 05:04:00,,0832.3,4.99,0.00,28.7,27.0,00.0,37.7,30.4,12.6,0000.5,0013.45,0007.59,0006.63
2022-10-18 05:05:00,,0832.3,5.00,0.00,28.7,27.0,00.0,37.6,30.4,12.6,0001.1,0013.34,0007.55,0006.62
2022-10-18 05:06:00,,0832.2,5.00,0.00,28.7,27.0,00.0,37.6,30.4,12.7,0000.1,0013.04,0007.48,0006.60
2022-10-18 05:07:00,,0832.3,5.00,0.00,28.7,26.9,00.0,37.6,30.4,12.7,0000.0,0013.28,0007.50,0006.58
2022-10-18 05:08:00,,0832.3,5.01,0.00,28.7,26.9,00.0,37.6,30.4,12.7,0000.0,0013.88,0007.51,0006.57
2022-10-18 05:09:00,,0832.3,5.00,0.00,28.7,26.9,00.0,37.6,30.3,12.7,0001.3,0014.50,0007.49,0006.56
2022-10-18 05:10:00,,0832.3,5.00,0.00,28.7,26.9,00.0,37.6,30.3,12.7,0000.0,0015.31,0007.46,0006.54
2022-10-18 05:11:00,,0832.2,5.00,0.00,28.6,26.9,00.0,37.6,30.3,12.7,0000.5,0016.22,0007.49,0006.54
2022-10-18 05:12:00,,0832.2,5.00,0.00,28.6,26.9,00.0,37.6,30.3,12.7,0001.9,0016.32,0007.49,0006.55
2022-10-18 05:13:00,,0832.3,5.00,0.00,28.6,26.9,00.0,37.6,30.3,12.7,0002.2,0016.35,0007.50,0006.55
2022-10-18 05:14:00,,0832.2,5.00,0.00,28.6,26.9,00.0,37.6,30.3,12.7,0002.0,0016.68,0007.49,0006.53
2022-10-18 05:15:00,,0832.2,5.00,0.00,28.6,26.9,00.0,37.5,30.3,12.7,0002.0,0016.61,0007.48,0006.53
2022-10-18 05:16:00,,0832.2,5.02,0.00,28.6,26.8,00.0,37.5,30.2,12.7,0001.9,0016.57,0007.51,0006.55
2022-10-18 05:17:00,,0832.2,4.99,0.00,28.6,26.8,00.0,37.5,30.2,12.7,0001.9,0016.99,0007.59,0006.57
2022-10-18 05:18:00,,0832.2,5.00,0.00,28.5,26.8,00.0,37.5,30.2,12.8,0001.3,0016.98,0007.63,0006.61
2022-10-18 05:19:00,,0832.2,4.99,0.00,28.5,26.8,00.0,37.5,30.2,12.8,0001.2,0016.49,0007.70,0006.64
2022-10-18 05:20:00,,0832.2,5.00,0.00,28.5,26.8,00.0,37.5,30.3,12.8,0000.5,0016.63,0007.77,0006.66
2022-10-18 05:21:00,,0832.2,5.01,0.00,28.5,26.8,00.0,37.5,30.2,12.8,0000.8,0016.82,0007.82,0006.69
2022-10-18 05:22:00,,0832.2,5.00,0.00,28.5,26.8,00.0,37.5,30.3,12.8,0001.4,0016.52,0007.81,0006.71
2022-10-18 05:23:00,,0832.3,5.00,0.00,28.5,26.8,00.0,37.5,30.2,12.8,0000.9,0017.08,0007.88,0006.75
2022-10-18 05:24:00,,0832.3,5.00,0.00,28.5,26.7,00.0,37.5,30.2,12.8,0001.2,0017.51,0007.95,0006.79
2022-10-18 05:25:00,,0832.2,5.00,0.00,28.5,26.7,00.0,37.5,30.1,12.8,0001.5,0017.50,0008.00,0006.85
2022-10-18 05:26:00,,0832.2,5.00,0.00,28.5,26.7,00.0,37.4,30.2,12.9,0001.4,0018.23,0008.07,0006.91
2022-10-18 05:27:00,,0832.2,5.00,0.00,28.5,26.7,00.0,37.4,30.1,12.9,0001.4,0018.79,0008.17,0006.95
2022-10-18 05:28:00,,0832.2,5.00,0.00,28.4,26.7,00.0,37.4,30.1,12.9,0001.3,0018.82,0008.23,0007.00
2022-10-18 05:29:00,,0832.2,5.00,0.00,28.4,26.7,00.0,37.4,30.1,12.9,0001.5,0019.55,0008.29,0007.05
2022-10-18 05:30:00,,0832.2,5.01,0.00,28.4,26.7,00.0,37.4,30.1,12.9,0001.5,0020.89,0008.40,0007.10
2022-10-18 05:31:00,,0832.1,5.00,0.00,28.4,26.7,00.0,37.4,30.1,12.9,0002.0,0020.73,0008.47,0007.15
2022-10-18 05:32:00,,0832.1,5.00,0.00,28.4,26.7,00.0,37.4,30.1,12.9,0001.7,0020.57,0008.59,0007.22
2022-10-18 05:33:00,,0832.1,5.00,0.00,28.4,26.7,00.0,37.4,30.1,12.9,0001.0,0020.64,0008.70,0007.26
2022-10-18 05:34:00,,0832.1,5.00,0.00,28.4,26.7,00.0,37.3,30.1,12.9,0000.6,0021.45,0008.80,0007.28
2022-10-18 05:35:00,,0832.1,5.00,0.00,28.4,26.7,00.0,37.3,30.1,12.9,-000.0,0021.51,0008.82,0007.29
2022-10-18 05:36:00,,0832.1,5.00,0.00,28.4,26.7,00.0,37.3,30.1,12.9,0000.2,0022.03,0008.85,0007.31
2022-10-18 05:37:00,,0832.1,5.00,0.00,28.4,26.6,00.0,37.3,30.1,12.9,0000.7,0021.54,0008.82,0007.32
2022-10-18 05:38:00,,0832.0,5.00,0.00,28.4,26.6,00.0,37.3,30.0,12.9,0000.4,0021.81,0008.84,0007.34
2022-10-18 05:39:00,,0832.0,5.00,0.00,28.3,26.6,00.0,37.3,30.0,13.0,0000.1,0021.72,0008.85,0007.36
2022-10-18 05:40:00,,0832.1,5.01,0.00,28.3,26.6,00.0,37.3,30.1,13.0,0000.2,0020.96,0008.87,0007.36
2022-10-18 05:41:00,,0832.1,5.00,0.00,28.3,26.6,00.0,37.3,30.0,13.0,0000.3,0020.37,0008.82,0007.35
2022-10-18 05:42:00,,0832.1,4.99,0.00,28.3,26.6,00.0,37.3,30.0,13.0,0000.1,0020.80,0008.86,0007.36
2022-10-18 05:43:00,,0832.1,4.99,0.00,28.3,26.6,00.0,37.2,30.0,13.0,-000.0,0020.87,0008.86,0007.34
2022-10-18 05:44:00,,0832.1,5.00,0.00,28.3,26.6,00.0,37.2,30.0,13.0,0000.3,0020.88,0008.90,0007.35
2022-10-18 05:45:00,,0832.1,5.00,0.00,28.3,26.6,00.0,37.2,30.0,13.0,0000.8,0020.93,0008.93,0007.38
2022-10-18 05:46:00,,0832.1,5.00,0.00,28.3,26.6,00.0,37.2,30.0,13.0,0001.9,0020.82,0008.99,0007.41
2022-10-18 05:47:00,,0832.1,5.00,0.00,28.3,26.6,00.0,37.2,30.0,13.0,0001.9,0020.93,0009.08,0007.43
2022-10-18 05:48:00,,0832.1,5.00,0.00,28.2,26.5,00.0,37.2,29.9,13.0,0001.8,0021.34,0009.17,0007.45
2022-10-18 05:49:00,,0832.1,5.00,0.00,28.2,26.5,00.0,37.2,29.9,13.0,0001.7,0021.00,0009.16,0007.47
2022-10-18 05:50:00,,0832.0,5.00,0.00,28.2,26.5,00.0,37.2,29.9,13.0,0001.5,0021.83,0009.16,0007.51
2022-10-18 05:51:00,,0832.0,5.00,0.00,28.2,26.5,00.0,37.2,29.9,13.0,0001.6,0022.29,0009.16,0007.55
2022-10-18 05:52:00,,0832.0,5.00,0.00,28.2,26.5,00.0,37.2,29.9,13.0,0002.2,0022.39,0009.22,0007.60
2022-10-18 05:53:00,,0832.0,5.00,0.00,28.2,26.5,00.0,37.2,29.9,13.0,0002.9,0023.68,0009.21,0007.64
2022-10-18 05:54:00,,0832.0,5.00,0.00,28.2,26.5,00.0,37.1,29.9,13.0,0002.4,0024.71,0009.21,0007.69
2022-10-18 05:55:00,,0832.0,5.00,0.00,28.2,26.5,00.0,37.1,29.9,13.0,0002.2,0024.98,0009.23,0007.73
2022-10-18 05:56:00,,0832.0,5.00,0.00,28.2,26.5,00.0,37.1,29.9,13.0,0001.9,0024.07,0009.18,0007.76
2022-10-18 05:57:00,,0832.0,5.02,0.00,28.2,26.4,00.0,37.1,29.9,13.0,0002.2,0024.35,0009.18,0007.78
2022-10-18 05:58:00,,0832.0,5.01,0.00,28.1,26.4,00.0,37.1,29.9,13.0,0002.4,0023.82,0009.15,0007.81
2022-10-18 05:59:00,,0832.0,4.98,0.00,28.1,26.4,00.0,37.1,29.9,13.0,0002.1,0023.48,0009.20,0007.84
